TJS-15

导读 | 豆包AI

TJS-15(通信技术试验十五号)是中国于2025年3月9日,在西昌卫星发射中心,通过长征三号乙运载火箭成功发射的通信技术试验卫星,属于中国TJS系列技术试验卫星的最新成员。官方介绍其主要承担多频段、高速卫星通信技术验证任务,该系列卫星多运行于地球静止轨道,外界推测其也可能开展空间技术试验、在轨服务测试等拓展任务。

Basic Information
目录编号:
63157
目录名称:
TJS-15
国际标识:
2025-045A
轨道中心:
EARTH
卫星名称:
TJS-15
卫星全名:
TJS-15
卫星状态:
在轨 (已飞行417 天)
发射日期:
2025-03-09 UTC
国别 :
中国 (CN)
星等 :
--
Orbit Information
数据来源 国际轨道数据 AOE轨道数据
星历时间 2026-04-29T23:35:59+0800
22小时前
查看轨道信息
2026-04-30T05:00:00+0800
17小时前
查看轨道信息
半长轴 42163.607km 42163.523km
偏心率 0.0006478 0.0006466
轨道倾角 0.278° 0.278°
近地点辐角 288.462° 288.842°
升交点赤经 84.482° 84.588°
平近点角 172.979° 253.722°
近地点 35758.156km 35758.123km
远地点 35812.784km 35812.649km
周期 1436.039分钟 1436.035分钟
每日圈数 1.002758 1.002761
Detailed Information
使用方式:
暂无
2D Orbit Map
3D Orbit Map
Orbit Altitude Analysis Chart
Orbit Inclination Analysis Chart
Orbit Comprehensive Analysis Chart
View Comprehensive Chart